Date String (YYYY-MM-DD hh:mm:ss) UTC,Instrument flags,absolute air pressure of the measurement (hPa),sample flow rate (lpm),inlet stack bypass flow (lpm),air temperature of the measurement (°C),ambient temperature measured by the external sensor (°C),aerosol sample conditioner tube jacket temperature (°C),OPC LED temperature (°C),internal box temperature (°C),relative humidity of the measurement (%),span deviation,mass concentration of particles derived from Lorenz-Mie calculation of OPC scattering (μg/m³),mass concentration of particles derived from Lorenz-Mie calculation of OPC scattering (μg/m³),mass concentration of particles derived from Lorenz-Mie calculation of OPC scattering (μg/m³)
DateTimeUTC,F1_M11,P_M11,Q1_M11,Q2_M11,T1_M11,T2_M11,T3_M11,T4_M11,T5_M11,U1_M11,ZSPAN_M11,X2_M11,X0_M11,X1_M11
2023-09-03 07:00:00,SystemResetWarning,0833.8,5.02,000.00,028.0,024.8,000.0,036.3,029.4,28.3,0000.0,0002.09,0004.95,0001.64
2023-09-03 07:01:00,SystemResetWarning,0833.8,5.00,000.00,028.0,025.0,000.0,036.3,029.3,28.4,0000.0,0002.06,0004.87,0001.64
2023-09-03 07:02:00,SystemResetWarning,0833.9,5.00,000.00,027.9,025.3,000.0,036.3,029.3,28.4,0000.0,0002.07,0006.06,0001.63
2023-09-03 07:03:00,SystemResetWarning,0833.8,5.00,000.00,027.9,025.6,000.0,036.3,029.4,28.4,0000.0,0002.09,0006.07,0001.62
2023-09-03 07:04:00,SystemResetWarning,0833.9,5.00,000.00,027.9,025.9,000.0,036.4,029.5,28.4,0000.0,0002.19,0006.39,0001.62
2023-09-03 07:05:00,SystemResetWarning,0833.9,5.00,000.00,028.0,026.2,000.0,036.4,029.6,28.5,0000.0,0002.22,0006.50,0001.62
2023-09-03 07:06:00,SystemResetWarning,0833.8,5.00,000.00,028.0,026.5,000.0,036.4,029.7,28.3,0000.0,0002.21,0006.46,0001.61
2023-09-03 07:07:00,SystemResetWarning,0833.8,5.00,000.00,028.1,026.7,000.0,036.4,029.7,28.2,0000.0,0002.18,0006.35,0001.60
2023-09-03 07:08:00,SystemResetWarning,0833.9,5.00,000.00,028.1,026.9,000.0,036.4,029.8,28.1,0000.0,0002.14,0005.12,0001.60
2023-09-03 07:09:00,SystemResetWarning,0833.9,5.00,000.00,028.2,027.0,000.0,036.5,029.9,28.0,0000.0,0002.11,0004.82,0001.59
2023-09-03 07:10:00,SystemResetWarning,0833.8,4.99,000.00,028.2,027.0,000.0,036.5,029.9,27.9,0000.0,0002.09,0004.78,0001.57
2023-09-03 07:11:00,SystemResetWarning,0833.8,4.99,000.00,028.1,025.6,000.0,036.4,029.5,28.2,0000.0,0002.04,0004.76,0001.57
2023-09-03 07:12:00,SystemResetWarning,0833.8,5.01,000.00,028.0,024.8,000.0,036.3,029.3,28.1,0000.0,0002.05,0004.87,0001.56
2023-09-03 07:13:00,SystemResetWarning,0833.8,5.01,000.00,028.0,024.9,000.0,036.3,029.2,28.2,0000.0,0002.03,0003.80,0001.57
2023-09-03 07:14:00,SystemResetWarning,0833.8,5.01,000.00,027.9,025.1,000.0,036.3,029.3,28.3,0000.0,0001.98,0003.18,0001.58
2023-09-03 07:15:00,SystemResetWarning,0833.8,4.99,000.00,027.9,025.5,000.0,036.3,029.4,28.3,0000.0,0001.96,0004.32,0001.59
2023-09-03 07:16:00,SystemResetWarning,0833.8,5.00,000.00,027.9,025.9,000.0,036.3,029.5,28.3,0000.0,0001.92,0004.59,0001.59
2023-09-03 07:17:00,SystemResetWarning,0833.8,5.01,000.00,028.0,026.2,000.0,036.4,029.5,28.2,0000.0,0001.93,0004.63,0001.59
2023-09-03 07:18:00,SystemResetWarning,0833.8,4.99,000.00,028.0,026.4,000.0,036.4,029.6,28.0,0000.0,0001.93,0005.27,0001.61
2023-09-03 07:19:00,SystemResetWarning,0833.8,5.00,000.00,028.0,026.6,000.0,036.4,029.7,28.0,0000.0,0001.99,0006.44,0001.61
2023-09-03 07:20:00,SystemResetWarning,0833.8,5.00,000.00,028.1,026.8,000.0,036.4,029.8,27.8,0000.0,0001.99,0006.47,0001.61
2023-09-03 07:21:00,SystemResetWarning,0833.8,5.00,000.00,028.1,027.0,000.0,036.4,029.8,27.9,0000.0,0002.05,0006.64,0001.61
2023-09-03 07:22:00,SystemResetWarning,0833.8,5.00,000.00,028.2,027.1,000.0,036.5,029.9,27.9,0000.0,0002.09,0006.70,0001.61
2023-09-03 07:23:00,SystemResetWarning,0833.9,4.99,000.00,028.2,026.8,000.0,036.5,029.8,27.8,0000.0,0002.09,0006.64,0001.61
2023-09-03 07:24:00,SystemResetWarning,0833.8,4.99,000.00,028.1,025.4,000.0,036.4,029.4,27.9,0000.0,0002.11,0006.69,0001.62
2023-09-03 07:25:00,SystemResetWarning,0833.8,5.00,000.00,028.0,024.8,000.0,036.3,029.3,28.2,0000.0,0002.13,0006.73,0001.62
2023-09-03 07:26:00,SystemResetWarning,0833.8,5.01,000.00,027.9,024.9,000.0,036.3,029.2,28.6,0000.0,0002.10,0005.69,0001.62
2023-09-03 07:27:00,SystemResetWarning,0833.8,5.01,000.00,027.9,025.2,000.0,036.3,029.3,28.7,0000.0,0002.12,0005.15,0001.62
2023-09-03 07:28:00,SystemResetWarning,0833.8,4.99,000.00,027.9,025.6,000.0,036.4,029.4,28.7,0000.0,0002.16,0005.22,0001.62
2023-09-03 07:29:00,SystemResetWarning,0833.8,4.99,000.00,027.9,025.9,000.0,036.4,029.5,28.7,0000.0,0002.17,0005.20,0001.61
2023-09-03 07:30:00,SystemResetWarning,0833.8,5.00,000.00,028.0,026.2,000.0,036.4,029.6,28.6,0000.0,0002.15,0003.88,0001.61
2023-09-03 07:31:00,SystemResetWarning,0833.8,5.00,000.00,028.0,026.4,000.0,036.4,029.6,28.6,0000.0,0002.19,0003.93,0001.61
2023-09-03 07:32:00,SystemResetWarning,0833.7,5.00,000.00,028.0,026.6,000.0,036.4,029.7,28.5,0000.0,0002.18,0004.03,0001.61
2023-09-03 07:33:00,SystemResetWarning,0833.8,5.00,000.00,028.1,026.8,000.0,036.4,029.8,28.4,0000.0,0002.16,0003.95,0001.61
2023-09-03 07:34:00,SystemResetWarning,0833.8,4.99,000.00,028.1,027.0,000.0,036.5,029.8,28.3,0000.0,0002.16,0003.96,0001.61
2023-09-03 07:35:00,SystemResetWarning,0833.8,5.01,000.00,028.2,027.1,000.0,036.5,029.9,27.9,0000.0,0002.17,0003.95,0001.61
2023-09-03 07:36:00,SystemResetWarning,0833.8,5.00,000.00,028.2,027.1,000.0,036.5,029.9,27.8,0000.0,0002.16,0003.87,0001.60
2023-09-03 07:37:00,SystemResetWarning,0833.7,4.98,000.00,028.2,025.9,000.0,036.4,029.6,28.2,0000.0,0002.16,0003.87,0001.59
2023-09-03 07:38:00,SystemResetWarning,0833.7,5.01,000.00,028.1,024.9,000.0,036.4,029.3,28.2,0000.0,0002.12,0003.68,0001.58
2023-09-03 07:39:00,SystemResetWarning,0833.7,5.01,000.00,028.0,024.9,000.0,036.3,029.3,28.2,0000.0,0002.09,0003.59,0001.59
2023-09-03 07:40:00,SystemResetWarning,0833.7,4.99,000.00,027.9,025.1,000.0,036.4,029.3,28.3,0000.0,0002.09,0003.30,0001.60
2023-09-03 07:41:00,SystemResetWarning,0833.7,5.00,000.00,027.9,025.5,000.0,036.4,029.4,28.5,0000.0,0002.08,0003.21,0001.60
2023-09-03 07:42:00,SystemResetWarning,0833.7,5.00,000.00,027.9,025.8,000.0,036.4,029.5,28.4,0000.0,0002.07,0003.18,0001.61
2023-09-03 07:43:00,SystemResetWarning,0833.7,5.00,000.00,028.0,026.1,000.0,036.4,029.6,28.0,0000.0,0002.07,0003.09,0001.61
2023-09-03 07:44:00,SystemResetWarning,0833.7,5.00,000.00,028.0,026.4,000.0,036.4,029.6,27.8,0000.0,0002.09,0003.14,0001.62
2023-09-03 07:45:00,SystemResetWarning,0833.6,5.00,000.00,028.1,026.6,000.0,036.4,029.7,27.7,0000.0,0002.12,0003.22,0001.63
2023-09-03 07:46:00,SystemResetWarning,0833.6,5.00,000.00,028.1,026.8,000.0,036.4,029.8,27.7,0000.0,0002.09,0003.25,0001.63
2023-09-03 07:47:00,SystemResetWarning,0833.6,5.00,000.00,028.1,027.0,000.0,036.5,029.8,27.6,0000.0,0002.14,0003.44,0001.64
2023-09-03 07:48:00,SystemResetWarning,0833.6,5.00,000.00,028.2,027.1,000.0,036.5,029.9,27.5,0000.0,0002.15,0003.97,0001.63
2023-09-03 07:49:00,SystemResetWarning,0833.5,5.00,000.00,028.2,027.0,000.0,036.5,029.9,27.3,0000.0,0002.16,0004.18,0001.63
2023-09-03 07:50:00,SystemResetWarning,0833.4,4.98,000.00,028.2,025.5,000.0,036.4,029.4,27.5,0000.0,0002.16,0004.20,0001.64
2023-09-03 07:51:00,SystemResetWarning,0833.4,5.01,000.00,028.0,024.1,000.0,036.3,029.1,27.8,0000.0,0002.15,0004.13,0001.64
2023-09-03 07:52:00,SystemResetWarning,0833.4,5.00,000.00,027.9,023.9,000.0,036.3,029.0,27.9,0000.0,0002.14,0004.58,0001.65
2023-09-03 07:53:00,SystemResetWarning,0833.4,5.01,000.00,027.8,024.2,000.0,036.3,028.9,28.0,0000.0,0002.13,0004.85,0001.65
2023-09-03 07:54:00,SystemResetWarning,0833.4,5.00,000.00,027.7,024.6,000.0,036.3,029.0,28.1,0000.0,0002.12,0005.50,0001.65
2023-09-03 07:55:00,SystemResetWarning,0833.4,5.01,000.00,027.8,025.1,000.0,036.3,029.2,28.2,0000.0,0002.12,0006.20,0001.65
2023-09-03 07:56:00,SystemResetWarning,0833.4,5.00,000.00,027.8,025.5,000.0,036.3,029.3,28.2,0000.0,0002.09,0006.11,0001.64
2023-09-03 07:57:00,SystemResetWarning,0833.4,5.00,000.00,027.8,025.8,000.0,036.3,029.4,28.3,0000.0,0002.09,0006.06,0001.63
2023-09-03 07:58:00,SystemResetWarning,0833.4,5.00,000.00,027.8,026.1,000.0,036.3,029.4,28.8,0000.0,0002.04,0005.86,0001.63
2023-09-03 07:59:00,SystemResetWarning,0833.4,5.00,000.00,027.9,026.3,000.0,036.3,029.5,29.1,0000.0,0002.02,0005.32,0001.63
